Location: Bühlhof
(48.7849°N, 8.6361°E)
Time: 09:26:43
(UTC+00:00)

NOSS 2-1 (E) - Pass Details

Date: 19 January 2026
Orbit: 385 x 1749 km, 63.3° (Epoch: 7 May)

Event Time Altitude Azimuth Distance (km) Brightness Sun altitude
Rises 16:35:15 0° 326° (NW) 2,305 6.6 -5.6°
Reaches altitude 10° 16:37:31 10° 345° (NNW) 1,503 5.5 -5.9°
Maximum altitude 16:40:02 20° 36° (NE) 1,117 4.4 -6.3°
Drops below altitude 10° 16:42:54 10° 85° (E) 1,754 5.3 -6.7°
Enters shadow 16:44:03 - 94° (E) 2,169 5.8 -6.9°
